| time (UTC) | temp C | wind direction | speed KPH | gust KPH | rain 1hr cm | rain 24hr cm | rain mn cm | humidity % | barometer mb |
| 20260505180117 | 12 | 271 | 22.5 | 0.0 | 0.00 | 0.00 | 0.00 | 37 | 981.4 |
| 20260505174544 | 12 | 272 | 20.9 | 0.0 | 0.00 | 0.00 | 0.00 | 35 | 980.6 |
| 20260505173100 | 12 | 275 | 20.9 | 0.0 | 0.00 | 0.00 | 0.00 | 36 | 979.7 |
| 20260505171544 | 12 | 277 | 19.3 | 0.0 | 0.00 | 0.00 | 0.00 | 36 | 979.7 |
| 20260505170115 | 12 | 280 | 20.9 | 0.0 | 0.00 | 0.00 | 0.00 | 36 | 979.7 |
| 20260505164544 | 11 | 290 | 20.9 | 0.0 | 0.00 | 0.00 | 0.00 | 40 | 980.8 |
| 20260505163103 | 11 | 290 | 20.9 | 0.0 | 0.00 | 0.00 | 0.00 | 41 | 978.9 |
| 20260505161544 | 11 | 281 | 19.3 | 0.0 | 0.00 | 0.00 | 0.00 | 41 | 978.9 |
| 20260505160117 | 11 | 273 | 17.7 | 0.0 | 0.00 | 0.00 | 0.00 | 41 | 978.9 |
| 20260505153106 | 10 | 269 | 20.9 | 0.0 | 0.00 | 0.00 | 0.00 | 41 | 979.7 |
| 20260505151544 | 10 | 277 | 19.3 | 0.0 | 0.00 | 0.00 | 0.00 | 41 | 979.7 |
| 20260505150125 | 10 | 284 | 20.9 | 0.0 | 0.00 | 0.00 | 0.00 | 41 | 979.7 |
| 20260505140125 | 10 | 279 | 19.3 | 0.0 | 0.00 | 0.00 | 0.00 | 42 | 979.5 |
| 20260505130117 | 10 | 299 | 17.7 | 0.0 | 0.00 | 0.00 | 0.00 | 57 | 979.5 |
| 20260505124543 | 10 | 282 | 19.3 | 0.0 | 0.00 | 0.00 | 0.00 | 72 | 978.8 |
| 20260505123103 | 10 | 301 | 11.3 | 0.0 | 0.00 | 0.00 | 0.00 | 73 | 977.1 |
| 20260505121544 | 10 | 301 | 12.9 | 0.0 | 0.00 | 0.00 | 0.00 | 73 | 977.1 |
| 20260505120129 | 9 | 292 | 11.3 | 0.0 | 0.00 | 0.00 | 0.00 | 73 | 977.1 |
| 20260505114544 | 9 | 287 | 14.5 | 0.0 | 0.00 | 0.00 | 0.00 | 70 | 977.3 |
| 20260505113101 | 9 | 285 | 12.9 | 0.0 | 0.00 | 0.00 | 0.00 | 71 | 975.8 |
| 20260505111543 | 9 | 297 | 9.7 | 0.0 | 0.00 | 0.00 | 0.00 | 71 | 975.7 |
| 20260505110121 | 8 | 288 | 12.9 | 0.0 | 0.00 | 0.00 | 0.00 | 71 | 975.7 |
| 20260505101543 | 10 | 269 | 16.1 | 0.0 | 0.00 | 0.00 | 0.00 | 59 | 974.3 |
| 20260505100120 | 10 | 268 | 16.1 | 0.0 | 0.00 | 0.00 | 0.00 | 59 | 974.3 |
| 20260505094543 | 10 | 271 | 16.1 | 0.0 | 0.00 | 0.00 | 0.00 | 60 | 974.5 |
| 20260505093106 | 10 | 275 | 16.1 | 0.0 | 0.00 | 0.00 | 0.00 | 63 | 974.3 |
| 20260505091543 | 10 | 263 | 14.5 | 0.0 | 0.00 | 0.00 | 0.00 | 63 | 974.3 |
| 20260505090123 | 10 | 261 | 16.1 | 0.0 | 0.00 | 0.00 | 0.00 | 63 | 974.3 |
| 20260505084541 | 11 | 272 | 16.1 | 0.0 | 0.00 | 0.00 | 0.00 | 73 | 974.5 |
| 20260505083102 | 11 | 271 | 14.5 | 0.0 | 0.00 | 0.00 | 0.00 | 79 | 973.8 |
| 20260505081543 | 11 | 264 | 12.9 | 0.0 | 0.00 | 0.00 | 0.00 | 79 | 973.8 |
| 20260505080115 | 11 | 256 | 12.9 | 0.0 | 0.00 | 0.00 | 0.00 | 65 | 974.0 |
| 20260505074544 | 11 | 254 | 14.5 | 0.0 | 0.00 | 0.00 | 0.00 | 77 | 973.2 |
| 20260505073104 | 12 | 252 | 12.9 | 0.0 | 0.00 | 0.00 | 0.00 | 77 | 973.2 |
| 20260505071544 | 12 | 248 | 16.1 | 0.0 | 0.00 | 0.00 | 0.00 | 77 | 973.3 |
| 20260505070117 | 12 | 242 | 14.5 | 0.0 | 0.00 | 0.00 | 0.00 | 77 | 973.3 |
| 20260505064543 | 12 | 245 | 14.5 | 0.0 | 0.00 | 0.00 | 0.00 | 74 | 973.5 |
| 20260505063100 | 13 | 239 | 16.1 | 0.0 | 0.00 | 0.00 | 0.00 | 77 | 973.1 |
| 20260505061544 | 13 | 241 | 17.7 | 0.0 | 0.00 | 0.00 | 0.00 | 77 | 973.1 |
| 20260505060127 | 13 | 243 | 19.3 | 0.0 | 0.00 | 0.00 | 0.00 | 77 | 973.1 |
| 20260505054544 | 13 | 237 | 20.9 | 0.0 | 0.00 | 0.00 | 0.00 | 74 | 974.2 |
| 20260505053107 | 14 | 245 | 14.5 | 0.0 | 0.00 | 0.00 | 0.00 | 66 | 972.8 |
| 20260505051543 | 15 | 250 | 16.1 | 0.0 | 0.00 | 0.00 | 0.00 | 66 | 972.8 |
| 20260505050115 | 15 | 242 | 16.1 | 0.0 | 0.00 | 0.00 | 0.00 | 66 | 972.8 |
| 20260505041543 | 16 | 207 | 17.7 | 0.0 | 0.00 | 0.00 | 0.00 | 61 | 972.7 |
| 20260505040120 | 16 | 221 | 20.9 | 0.0 | 0.00 | 0.00 | 0.00 | 61 | 972.7 |
| 20260505034540 | 16 | 226 | 24.1 | 0.0 | 0.00 | 0.00 | 0.00 | 62 | 972.6 |
| 20260505033103 | 16 | 210 | 19.3 | 0.0 | 0.00 | 0.00 | 0.00 | 61 | 972.5 |
| 20260505031543 | 16 | 197 | 25.7 | 0.0 | 0.00 | 0.00 | 0.00 | 61 | 972.5 |
| 20260505030116 | 16 | 201 | 24.1 | 0.0 | 0.00 | 0.00 | 0.00 | 61 | 972.5 |
| 20260505024543 | 16 | 205 | 22.5 | 0.0 | 0.00 | 0.00 | 0.00 | 59 | 972.8 |
| 20260505023103 | 17 | 211 | 27.4 | 0.0 | 0.00 | 0.00 | 0.00 | 59 | 972.8 |
| 20260505021542 | 17 | 212 | 25.7 | 0.0 | 0.00 | 0.00 | 0.00 | 59 | 972.8 |
| 20260505020116 | 17 | 212 | 29.0 | 0.0 | 0.00 | 0.00 | 0.00 | 59 | 972.8 |
| 20260505014542 | 17 | 211 | 32.2 | 0.0 | 0.00 | 0.00 | 0.00 | 68 | 972.1 |
| 20260505013101 | 17 | 209 | 32.2 | 0.0 | 0.00 | 0.00 | 0.00 | 68 | 972.1 |
| 20260505011543 | 16 | 203 | 29.0 | 0.0 | 0.00 | 0.00 | 0.00 | 68 | 972.1 |
| 20260505010112 | 17 | 207 | 29.0 | 0.0 | 0.00 | 0.00 | 0.00 | 68 | 972.1 |
| 20260505004543 | 18 | 207 | 27.4 | 0.0 | 0.00 | 0.00 | 0.00 | 39 | 972.3 |
| 20260505003100 | 19 | 201 | 22.5 | 0.0 | 0.00 | 0.00 | 0.00 | 43 | 973.0 |
| 20260505001542 | 19 | 194 | 14.5 | 0.0 | 0.00 | 0.00 | 0.00 | 43 | 973.0 |
| 20260505000121 | 20 | 201 | 9.7 | 0.0 | 0.00 | 0.00 | 0.00 | 43 | 973.0 |
| 20260504234543 | 20 | 218 | 11.3 | 0.0 | 0.00 | 0.00 | 0.00 | 35 | 973.0 |
| 20260504233101 | 21 | 237 | 14.5 | 0.0 | 0.00 | 0.00 | 0.00 | 33 | 972.9 |
| 20260504231543 | 21 | 238 | 14.5 | 0.0 | 0.00 | 0.00 | 0.00 | 33 | 972.9 |
| 20260504230109 | 21 | 246 | 17.7 | 0.0 | 0.00 | 0.00 | 0.00 | 33 | 972.9 |
| 20260504224543 | 22 | 248 | 22.5 | 0.0 | 0.00 | 0.00 | 0.00 | 34 | 972.8 |
| 20260504223103 | 22 | 248 | 25.7 | 0.0 | 0.00 | 0.00 | 0.00 | 34 | 973.1 |
| 20260504221543 | 22 | 251 | 25.7 | 0.0 | 0.00 | 0.00 | 0.00 | 34 | 973.1 |
| 20260504220119 | 22 | 244 | 29.0 | 0.0 | 0.00 | 0.00 | 0.00 | 34 | 973.1 |
| 20260504214542 | 22 | 239 | 30.6 | 0.0 | 0.00 | 0.00 | 0.00 | 36 | 974.1 |
| 20260504213104 | 22 | 238 | 29.0 | 0.0 | 0.00 | 0.00 | 0.00 | 36 | 974.1 |
| 20260504211542 | 22 | 238 | 29.0 | 0.0 | 0.00 | 0.00 | 0.00 | 37 | 973.0 |
| 20260504210115 | 22 | 242 | 29.0 | 0.0 | 0.00 | 0.00 | 0.00 | 37 | 973.0 |
| 20260504204547 | 22 | 240 | 32.2 | 0.0 | 0.00 | 0.00 | 0.00 | 37 | 973.7 |
| 20260504203058 | 22 | 237 | 33.8 | 0.0 | 0.00 | 0.00 | 0.00 | 37 | 973.7 |
| 20260504201548 | 22 | 237 | 32.2 | 0.0 | 0.00 | 0.00 | 0.00 | 37 | 973.7 |
| 20260504200113 | 22 | 234 | 30.6 | 0.0 | 0.00 | 0.00 | 0.00 | 34 | 973.1 |
| 20260504194548 | 22 | 234 | 33.8 | 0.0 | 0.00 | 0.00 | 0.00 | 32 | 973.9 |
| 20260504193107 | 22 | 234 | 33.8 | 0.0 | 0.00 | 0.00 | 0.00 | 32 | 973.9 |
| 20260504191549 | 22 | 229 | 32.2 | 0.0 | 0.00 | 0.00 | 0.00 | 32 | 973.9 |
| 20260504190117 | 22 | 231 | 32.2 | 0.0 | 0.00 | 0.00 | 0.00 | 32 | 973.9 |
| 20260504184544 | 22 | 227 | 32.2 | 0.0 | 0.00 | 0.00 | 0.00 | 25 | 975.1 |
| 20260504183109 | 22 | 226 | 29.0 | 0.0 | 0.00 | 0.00 | 0.00 | 27 | 974.7 |
| 20260504181548 | 22 | 226 | 27.4 | 0.0 | 0.00 | 0.00 | 0.00 | 27 | 974.7 |